Date String (YYYY-MM-DD hh:mm:ss) UTC,Instrument flags,Ambient pressure (hPa),Sample flow (lpm),Bypass flow (lpm),Sample temperature (°C),Ambient temperature (°C),ASC tube jacket temperature (°C),LED temperature (°C),Box temperature (°C),Sample RH (%),Span deviation,Mass concentration (μg/m³),Mass concentration (μg/m³),Mass concentration (μg/m³)
DateTimeUTC,F1_M11,P_M11,Q1_M11,Q2_M11,T1_M11,T2_M11,T3_M11,T4_M11,T5_M11,U1_M11,ZSPAN_M11,X0_M11,X2_M11,X1_M11
2022-03-02 08:00:00,,0830.0,5.00,0.00,27.8,26.8,00.0,36.9,29.5,09.3,0000.0,0001.05,0000.42,0000.30
2022-03-02 08:01:00,,0830.0,5.00,0.00,27.8,26.9,00.0,36.9,29.5,09.3,0000.0,0001.10,0000.43,0000.30
2022-03-02 08:02:00,,0830.0,4.99,0.00,27.8,26.8,00.0,36.9,29.5,09.2,0000.0,0001.09,0000.43,0000.30
2022-03-02 08:03:00,,0830.0,5.00,0.00,27.8,26.8,00.0,36.9,29.4,09.2,0000.0,0000.92,0000.43,0000.31
2022-03-02 08:04:00,,0830.0,5.01,0.00,27.8,26.8,00.0,36.9,29.5,09.3,0000.0,0000.74,0000.45,0000.32
2022-03-02 08:05:00,,0830.0,5.00,0.00,27.8,26.8,00.0,36.9,29.4,09.3,0000.0,0000.72,0000.45,0000.32
2022-03-02 08:06:00,,0830.0,4.99,0.00,27.8,26.8,00.0,36.9,29.4,09.2,0000.0,0000.66,0000.42,0000.31
2022-03-02 08:07:00,,0830.0,4.99,0.00,27.8,26.8,00.0,36.9,29.5,09.2,0000.0,0000.64,0000.41,0000.31
2022-03-02 08:08:00,,0829.9,5.00,0.00,27.8,26.8,00.0,36.9,29.5,09.3,0000.0,0000.64,0000.41,0000.31
2022-03-02 08:09:00,,0829.9,5.00,0.00,27.8,26.8,00.0,36.9,29.5,09.3,0000.0,0000.67,0000.43,0000.31
2022-03-02 08:10:00,,0829.9,5.01,0.00,27.8,26.8,00.0,36.9,29.4,09.3,0000.0,0000.71,0000.44,0000.31
2022-03-02 08:11:00,,0829.9,5.02,0.00,27.8,26.8,00.0,36.8,29.4,09.3,0000.0,0000.71,0000.45,0000.31
2022-03-02 08:12:00,,0829.9,5.00,0.00,27.8,26.8,00.0,36.8,29.4,09.3,0000.0,0000.65,0000.42,0000.30
2022-03-02 08:13:00,,0829.9,4.99,0.00,27.8,26.8,00.0,36.8,29.4,09.3,0000.0,0000.64,0000.42,0000.31
2022-03-02 08:14:00,,0829.8,5.00,0.00,27.7,26.8,00.0,36.8,29.4,09.3,0000.0,0000.62,0000.41,0000.31
2022-03-02 08:15:00,,0829.9,5.00,0.00,27.7,26.8,00.0,36.8,29.4,09.3,0000.0,0000.59,0000.39,0000.30
2022-03-02 08:16:00,,0829.8,4.99,0.00,27.7,26.8,00.0,36.8,29.4,09.3,0000.0,0000.63,0000.41,0000.30
2022-03-02 08:17:00,,0829.8,5.01,0.00,27.7,26.8,00.0,36.8,29.4,09.3,0000.0,0000.62,0000.40,0000.30
2022-03-02 08:18:00,,0829.8,4.99,0.00,27.7,26.8,00.0,36.8,29.4,09.2,0000.0,0000.64,0000.41,0000.30
2022-03-02 08:19:00,,0829.8,5.00,0.00,27.7,26.8,00.0,36.8,29.4,09.3,0000.0,0000.61,0000.40,0000.30
2022-03-02 08:20:00,,0829.8,5.00,0.00,27.7,26.8,00.0,36.8,29.4,09.3,0000.0,0000.59,0000.39,0000.30
2022-03-02 08:21:00,,0829.9,4.99,0.00,27.7,26.8,00.0,36.8,29.3,09.3,0000.0,0000.56,0000.38,0000.29
2022-03-02 08:22:00,,0829.9,4.99,0.00,27.7,26.8,00.0,36.8,29.3,09.2,0000.0,0000.59,0000.39,0000.29
2022-03-02 08:23:00,,0829.9,5.01,0.00,27.7,26.8,00.0,36.8,29.4,09.3,0000.0,0000.61,0000.40,0000.30
2022-03-02 08:24:00,,0829.8,5.00,0.00,27.7,26.8,00.0,36.8,29.3,09.3,0000.0,0000.58,0000.38,0000.29
2022-03-02 08:25:00,,0829.9,5.00,0.00,27.6,26.8,00.0,36.8,29.3,09.4,0000.0,0000.53,0000.36,0000.28
2022-03-02 08:26:00,,0829.9,5.01,0.00,27.6,26.7,00.0,36.7,29.3,09.4,0000.0,0000.53,0000.36,0000.28
2022-03-02 08:27:00,,0829.8,4.99,0.00,27.6,26.7,00.0,36.7,29.3,09.4,0000.0,0000.53,0000.36,0000.28
2022-03-02 08:28:00,,0829.9,5.00,0.00,27.6,26.7,00.0,36.7,29.3,09.4,0000.0,0000.55,0000.37,0000.29
2022-03-02 08:29:00,,0829.8,5.00,0.00,27.6,26.7,00.0,36.7,29.3,09.4,0000.0,0000.53,0000.36,0000.29
2022-03-02 08:30:00,,0829.8,5.00,0.00,27.6,26.7,00.0,36.7,29.3,09.6,0000.0,0000.50,0000.35,0000.28
2022-03-02 08:31:00,,0829.8,5.00,0.00,27.6,26.7,00.0,36.7,29.2,09.6,0000.0,0000.47,0000.34,0000.29
2022-03-02 08:32:00,,0829.9,5.01,0.00,27.6,26.6,00.0,36.7,29.2,09.7,0000.0,0000.49,0000.34,0000.29
2022-03-02 08:33:00,,0829.8,5.01,0.00,27.6,26.6,00.0,36.7,29.2,09.6,0000.0,0000.49,0000.34,0000.30
2022-03-02 08:34:00,,0829.9,5.00,0.00,27.6,26.6,00.0,36.7,29.2,09.6,0000.0,0000.56,0000.35,0000.29
2022-03-02 08:35:00,,0829.9,4.99,0.00,27.6,26.6,00.0,36.7,29.2,09.7,0000.0,0000.58,0000.36,0000.29
2022-03-02 08:36:00,,0829.9,4.99,0.00,27.5,26.6,00.0,36.7,29.2,09.8,0000.0,0000.62,0000.38,0000.30
2022-03-02 08:37:00,,0829.9,4.99,0.00,27.5,26.6,00.0,36.7,29.2,09.8,0000.0,0000.65,0000.39,0000.30
2022-03-02 08:38:00,,0829.9,5.00,0.00,27.5,26.6,00.0,36.6,29.2,09.8,0000.0,0000.68,0000.41,0000.30
2022-03-02 08:39:00,,0829.9,5.01,0.00,27.5,26.5,00.0,36.6,29.2,09.8,0000.0,0000.75,0000.41,0000.29
2022-03-02 08:40:00,,0829.9,5.01,0.00,27.5,26.5,00.0,36.6,29.2,09.9,0000.0,0000.86,0000.44,0000.30
2022-03-02 08:41:00,,0829.9,5.00,0.00,27.5,26.5,00.0,36.6,29.2,09.7,0000.0,0000.89,0000.45,0000.30
2022-03-02 08:42:00,,0829.9,5.01,0.00,27.5,26.5,00.0,36.6,29.2,09.8,0000.0,0000.91,0000.46,0000.30
2022-03-02 08:43:00,,0829.9,5.00,0.00,27.5,26.6,00.0,36.6,29.2,09.7,0000.0,0000.91,0000.47,0000.29
2022-03-02 08:44:00,,0829.9,5.00,0.00,27.5,26.5,00.0,36.6,29.2,09.7,0000.0,0000.91,0000.47,0000.30
2022-03-02 08:45:00,,0829.9,5.01,0.00,27.5,26.5,00.0,36.6,29.2,09.8,0000.0,0000.87,0000.47,0000.30
2022-03-02 08:46:00,,0829.9,5.00,0.00,27.5,26.5,00.0,36.6,29.2,10.0,0000.0,0000.87,0000.47,0000.30
2022-03-02 08:47:00,,0829.9,4.99,0.00,27.5,26.5,00.0,36.6,29.2,10.2,0000.0,0000.90,0000.47,0000.29
2022-03-02 08:48:00,,0829.9,4.99,0.00,27.5,26.5,00.0,36.6,29.1,10.2,0000.0,0000.88,0000.46,0000.29
2022-03-02 08:49:00,,0829.8,4.99,0.00,27.5,26.5,00.0,36.6,29.2,10.2,0000.0,0000.84,0000.45,0000.30
2022-03-02 08:50:00,,0829.8,5.00,0.00,27.5,26.5,00.0,36.6,29.1,10.1,0000.0,0000.81,0000.45,0000.30
2022-03-02 08:51:00,,0829.9,5.00,0.00,27.5,26.5,00.0,36.6,29.2,09.9,0000.0,0000.70,0000.43,0000.29
2022-03-02 08:52:00,,0829.9,5.00,0.00,27.5,26.5,00.0,36.6,29.2,10.0,0000.0,0000.66,0000.42,0000.29
2022-03-02 08:53:00,,0829.9,5.00,0.00,27.5,26.5,00.0,36.6,29.1,10.0,0000.0,0000.64,0000.40,0000.29
2022-03-02 08:54:00,,0829.9,5.00,0.00,27.5,26.5,00.0,36.6,29.1,10.0,0000.0,0000.61,0000.38,0000.28
2022-03-02 08:55:00,,0829.9,5.00,0.00,27.5,26.5,00.0,36.5,29.1,10.0,0000.0,0000.58,0000.37,0000.28
2022-03-02 08:56:00,,0829.9,5.00,0.00,27.5,26.5,00.0,36.5,29.1,10.1,0000.0,0000.55,0000.35,0000.27
2022-03-02 08:57:00,,0829.9,5.00,0.00,27.4,26.5,00.0,36.5,29.1,09.9,0000.0,0000.53,0000.35,0000.27
2022-03-02 08:58:00,,0829.9,5.00,0.00,27.4,26.4,00.0,36.5,29.1,09.7,0000.0,0000.49,0000.33,0000.27
2022-03-02 08:59:00,,0829.8,5.00,0.00,27.4,26.4,00.0,36.5,29.0,09.7,0000.0,0000.48,0000.32,0000.26
